[[{"header":{"parameterUnit":"m.s-1","parameterCategory":1,"la1":30.2991,"la2":30.254,"lo1":-89.0895,"lo2":-89.0444,"dy":0.0017,"dx":0.0017,"nx":28,"ny":28,"refTime":"2023-07-26T09:00:00:Z","depth":0,"parameterNumber":2,"parameterNumberName":"U-component_of_WINDS"},"data":[0,0,0,0,0,0,0,0,0,0,0,0,0,0,0,0,0,0,0,0,0,0,0,0,0,0,0,0,0,0,0,0,0,0,0,0,0,0,0,0,0,0,0,0,0,0,0,0,0,0,0,0,0,0,0,0,0,0,-3.215,-3.215,0,-3.22,-3.2201,-3.2201,-3.2154,-3.2152,-3.215,-3.2148,-3.2192,-3.2195,-3.2198,0,0,0,0,0,0,0,0,0,0,0,0,0,-3.2007,-3.201,-3.215,-3.215,-3.2151,-3.22,-3.2201,-3.2201,-3.2154,-3.2152,-3.215,-3.2147,-3.2191,-3.2194,-3.2198,0,0,0,0,0,0,0,0,0,0,0,0,0,-3.2064,-3.2011,-3.215,-3.2134,-3.2133,-3.22,-3.2201,-3.2202,-3.2155,-3.2152,-3.2149,-3.2146,-3.219,-3.2194,-3.2198,-3.2281,0,0,-3.2212,-3.2214,0,0,0,0,0,0,0,0,-3.2061,-3.2069,-3.2135,-3.2135,-3.2134,-3.2168,-3.2166,-3.2228,-3.2155,-3.2146,-3.2148,-3.2145,-3.2186,-3.219,-3.2206,-3.2283,-3.2285,-3.2212,-3.2215,-3.2217,-3.2218,0,0,0,0,0,0,0,-3.2057,-3.2067,-3.2169,-3.2136,-3.2136,-3.2122,-3.2127,-3.2178,-3.2181,-3.2147,-3.2143,-3.215,-3.2185,-3.2201,-3.2206,-3.2286,-3.2212,-3.2216,-3.2218,-3.222,-3.2435,-3.2438,0,0,0,0,0,0,-3.2056,-3.2064,-3.2168,-3.2171,-3.209,-3.2127,-3.2132,-3.216,-3.218,-3.2181,-3.2153,-3.2148,-3.2195,-3.2201,-3.2208,-3.2306,-3.2217,-3.2221,-3.2223,-3.2432,-3.2436,-3.2439,0,0,0,0,0,0,-3.2053,-3.2065,-3.2166,-3.2117,-3.2128,-3.2132,-3.2163,-3.2162,-3.2179,-3.2185,-3.2184,-3.217,-3.2193,-3.2201,-3.2264,-3.2306,-3.2223,-3.2227,-3.2428,-3.2433,-3.2438,-3.2503,0,0,0,0,0,0,-3.2049,-3.2065,-3.2097,-3.2118,-3.2131,-3.2223,-3.2166,-3.2165,-3.2188,-3.2182,-3.2201,-3.2201,-3.2192,-3.2258,-3.2268,-3.2311,-3.223,-3.2424,-3.2431,-3.2436,-3.2497,-3.2509,-3.252,0,0,0,0,0,-3.2044,-3.2112,-3.2099,-3.2112,-3.2173,-3.2226,-3.2233,-3.2223,-3.2191,-3.2223,-3.2227,-3.22,-3.2301,-3.2265,-3.2276,-3.2321,-3.2422,-3.2429,-3.2436,-3.2492,-3.2507,-3.2519,0,0,0,0,0,0,-3.2091,-3.2114,-3.21,-3.2177,-3.2201,-3.2218,-3.2257,-3.224,-3.227,-3.2263,-3.2248,-3.2253,-3.2319,-3.2326,-3.2285,-3.2403,-3.2356,-3.2365,-3.2394,-3.2409,-3.242,-3.2415,-3.2234,0,0,0,0,0,-3.2112,-3.2156,-3.2172,-3.2238,-3.2251,-3.2253,-3.2275,-3.2267,-3.2289,-3.2297,-3.2306,-3.2327,-3.2363,-3.2387,-3.2421,-3.2499,-3.2502,-3.2536,-3.2547,-3.2557,-3.2564,-3.2605,-3.262,-3.2462,-3.2462,-3.2462,0,0,-3.2152,-3.217,-3.2198,-3.2248,-3.2265,-3.2309,-3.2261,-3.2308,-3.234,-3.2304,-3.2364,-3.2372,-3.2394,-3.2465,-3.2496,-3.2473,-3.2609,-3.2565,-3.2573,-3.2575,-3.2614,-3.2629,-3.2642,-3.2467,-3.2466,-3.2465,0,0,-3.2248,-3.2267,-3.2324,-3.2344,-3.2372,-3.2373,-3.2388,-3.2409,-3.2413,-3.2475,-3.2449,-3.2485,-3.2549,-3.2566,-3.2582,-3.269,-3.2665,-3.2701,-3.2759,-3.28,-3.2813,-3.2823,-3.286,-3.2873,-3.2709,-3.271,-3.271,0,-3.2293,-3.236,-3.2355,-3.2406,-3.2428,-3.2403,-3.246,-3.2478,-3.2514,-3.2529,-3.2504,-3.2584,-3.2597,-3.2672,-3.2699,-3.2714,-3.2728,-3.2697,-3.2812,-3.2823,-3.2833,-3.2867,-3.2881,-3.2714,-3.2713,-3.2713,-3.2712,0,-3.2415,-3.2462,-3.2505,-3.2545,-3.2572,-3.2626,-3.2627,-3.2656,-3.2646,-3.265,-3.2713,-3.2728,-3.2765,-3.2783,-3.2772,-3.2857,-3.2841,-3.2815,-3.2766,-3.2852,-3.2884,-3.2897,-3.2719,-3.2718,-3.2717,-3.2716,0,0,-3.2535,-3.2577,-3.2592,-3.261,-3.2642,-3.2677,-3.273,-3.277,-3.2793,-3.2821,-3.2863,-3.292,-3.2896,-3.2915,-3.2907,-3.2944,-3.3026,-3.2912,-3.2912,-3.293,-3.3118,-3.3136,-3.3151,-3.3013,-3.3015,-3.3017,-3.3115,0,-3.2631,-3.2725,-3.2724,-3.2811,-3.2854,-3.2832,-3.2878,-3.2902,-3.2908,-3.2944,-3.2949,-3.2989,-3.2956,-3.2967,-3.3003,-3.3009,-3.3063,-3.3002,-3.3048,-3.305,-3.304,-3.3168,-3.3187,-3.3278,-3.3128,-3.313,-3.3132,0,-3.2753,-3.2789,-3.2881,-3.2908,-3.2926,-3.2968,-3.3005,-3.3041,-3.3067,-3.3069,-3.3093,-3.308,-3.3132,-3.3087,-3.3157,-3.3116,-3.3135,-3.3141,-3.3145,-3.3145,-3.3093,-3.3169,-3.3308,-3.332,-3.3152,-3.315,-3.3149,0,-3.283,-3.2901,-3.2965,-3.2982,-3.3016,-3.3046,-3.3061,-3.3085,-3.311,-3.3142,-3.3157,-3.3194,-3.3213,-3.3242,-3.3238,-3.3206,-3.3309,-3.3264,-3.331,-3.331,-3.3329,-3.3327,-3.3469,-3.3348,-3.3347,-3.3347,-3.3347,0,-3.2934,-3.299,-3.3001,-3.304,-3.3103,-3.3101,-3.3162,-3.3174,-3.3197,-3.3236,-3.322,-3.3257,-3.3253,-3.329,-3.3288,-3.3345,-3.3355,-3.3356,-3.3354,-3.3355,-3.3355,-3.3364,-3.3357,-3.3351,-3.335,-3.3349,-3.3349,0,-3.3027,-3.3037,-3.3106,-3.3135,-3.3144,-3.3189,-3.3212,-3.3248,-3.3256,-3.3306,-3.3318,-3.3328,-3.3371,-3.3372,-3.342,-3.3419,-3.3489,-3.3481,-3.348,-3.3478,-3.3523,-3.3517,-3.3673,-3.3692,-3.3562,-3.3563,-3.3564,0,-3.3091,-3.3135,-3.3171,-3.3198,-3.3216,-3.326,-3.3287,-3.3288,-3.3315,-3.3351,-3.3383,-3.3425,-3.3459,-3.3528,-3.3537,-3.3575,-3.3566,-3.3618,-3.357,-3.3571,-3.3563,-3.3559,-3.3563,-3.3625,-3.3627,-3.3628,-3.3629,0,-3.3203,-3.3207,-3.3247,-3.3291,-3.3324,-3.3357,-3.3388,-3.3411,-3.3415,-3.3447,-3.3493,-3.352,-3.3572,-3.3613,-3.365,-3.3662,-3.3646,-3.3645,-3.3657,-3.3657,-3.3654,-3.3654,-3.3502,-3.364,-3.3639,-3.3638,-3.3638,-3.3637,-3.3281,-3.332,-3.3352,-3.3398,-3.3423,-3.3453,-3.3489,-3.3503,-3.3543,-3.3587,-3.3585,-3.3636,-3.3662,-3.3711,-3.3727,-3.3765,-3.3746,-3.3764,-3.3768,-3.3772,-3.3776,-3.3652,-3.3772,-3.3772,-3.3771,-3.3771,-3.3771,0,-3.339,-3.3411,-3.3454,-3.35,-3.3537,-3.3524,-3.3559,-3.3588,-3.3634,-3.3662,-3.3698,-3.375,-3.3792,-3.3807,-3.3846,-3.3874,-3.3867,-3.3884,-3.3879,-3.3882,-3.3791,-3.3775,-3.3888,-3.3888,-3.3888,-3.3888,-3.3888,-3.3888,-3.345,-3.3515,-3.3523,-3.36,-3.362,-3.3672,-3.3692,-3.372,-3.3742,-3.3803,-3.3839,-3.3851,-3.3873,-3.3915,-3.3952,-3.3955,-3.3969,-3.3988,-3.3988,-3.3901,-3.3889,-3.3877,-3.3863,-3.3992,-3.3992,-3.4076,-3.4076,-3.4077]},{"header":{"parameterUnit":"m.s-1","parameterCategory":1,"la1":30.2991,"la2":30.254,"lo1":-89.0895,"lo2":-89.0444,"dy":0.0017,"dx":0.0017,"nx":28,"ny":28,"refTime":"2023-07-26T09:00:00:Z","depth":0,"parameterNumber":3,"parameterNumberName":"V-component_of_WINDS"},"data":[0,0,0,0,0,0,0,0,0,0,0,0,0,0,0,0,0,0,0,0,0,0,0,0,0,0,0,0,0,0,0,0,0,0,0,0,0,0,0,0,0,0,0,0,0,0,0,0,0,0,0,0,0,0,0,0,0,0,1.9879,1.9877,0,1.9623,1.962,1.9617,1.9541,1.9542,1.9543,1.9545,1.9268,1.926,1.9251,0,0,0,0,0,0,0,0,0,0,0,0,0,2.029,2.0283,1.988,1.9877,1.9873,1.9623,1.962,1.9616,1.954,1.9542,1.9544,1.9545,1.9271,1.9261,1.925,0,0,0,0,0,0,0,0,0,0,0,0,0,2.008,2.028,1.988,1.9806,1.9797,1.9624,1.9619,1.9615,1.954,1.9542,1.9544,1.9546,1.9274,1.9262,1.9249,1.9128,0,0,1.9209,1.9204,0,0,0,0,0,0,0,0,2.0092,2.0065,1.982,1.9811,1.98,1.9616,1.9663,1.9451,1.954,1.9637,1.9545,1.9547,1.9381,1.936,1.9307,1.9115,1.9103,1.9208,1.92,1.9195,1.9191,0,0,0,0,0,0,0,2.0107,2.0075,1.9778,1.9816,1.9804,1.978,1.9753,1.9622,1.95,1.9629,1.9623,1.9594,1.9376,1.9319,1.9299,1.9099,1.9209,1.9197,1.9189,1.9184,1.8788,1.8786,0,0,0,0,0,0,2.0136,2.0088,1.9786,1.977,1.9955,1.9771,1.974,1.9673,1.9502,1.9478,1.9592,1.9591,1.934,1.9315,1.9289,1.9132,1.9195,1.9183,1.9175,1.8791,1.8788,1.8785,0,0,0,0,0,0,2.0145,2.011,1.9796,1.9927,1.9886,1.9762,1.9687,1.9667,1.961,1.9475,1.9451,1.9558,1.9341,1.9308,1.9168,1.9122,1.9177,1.9165,1.8794,1.879,1.8786,1.882,0,0,0,0,0,0,2.0157,2.0113,2.007,1.9927,1.9879,1.9684,1.9684,1.966,1.9589,1.9585,1.9436,1.9413,1.934,1.9188,1.9155,1.9105,1.9155,1.8798,1.8792,1.8787,1.8823,1.8818,1.8814,0,0,0,0,0,2.0172,2.0088,2.0068,2.0032,1.9823,1.9682,1.9653,1.9576,1.9586,1.9538,1.9451,1.9417,1.9133,1.9174,1.9137,1.9082,1.88,1.8794,1.8788,1.8825,1.8819,1.8814,0,0,0,0,0,0,2.0225,2.0068,2.0044,1.9913,1.9812,1.9669,1.9607,1.9573,1.9463,1.9464,1.9367,1.9334,1.92,1.9127,1.9176,1.8953,1.8965,1.8951,1.9006,1.8999,1.8995,1.9014,1.9144,0,0,0,0,0,2.0222,2.0126,1.9992,1.9888,1.9839,1.9732,1.9667,1.9616,1.9506,1.9461,1.9363,1.9254,1.9138,1.9065,1.8952,1.8812,1.8775,1.8755,1.8751,1.8748,1.8736,1.8651,1.864,1.8764,1.8764,1.8765,0,0,2.0214,2.0116,2.006,1.9896,1.9812,1.9708,1.9696,1.9588,1.9509,1.9443,1.9306,1.923,1.91,1.8959,1.8892,1.8894,1.8694,1.874,1.8739,1.8728,1.8644,1.8632,1.8622,1.876,1.8761,1.8762,0,0,2.0145,2.0064,1.9967,1.9883,1.9756,1.9685,1.9662,1.9524,1.9472,1.9334,1.9281,1.9182,1.8989,1.8897,1.8825,1.8719,1.8682,1.8684,1.866,1.8578,1.8568,1.8559,1.8517,1.8503,1.8673,1.8673,1.8673,0,2.015,1.9997,1.992,1.9814,1.9741,1.9681,1.9578,1.9499,1.934,1.9288,1.9294,1.9047,1.8955,1.879,1.8764,1.8709,1.8674,1.87,1.8577,1.8567,1.8557,1.8515,1.85,1.8674,1.8674,1.8674,1.8674,0,2.0006,1.99,1.9836,1.9688,1.9607,1.9504,1.9406,1.9333,1.9288,1.9215,1.9071,1.8959,1.8821,1.8778,1.8732,1.8603,1.8608,1.8597,1.8606,1.8547,1.8506,1.849,1.8675,1.8675,1.8675,1.8675,0,0,1.9965,1.9775,1.9752,1.9682,1.9537,1.945,1.9341,1.921,1.9146,1.9038,1.894,1.8776,1.8764,1.8682,1.8625,1.8554,1.8471,1.8549,1.8545,1.8536,1.8317,1.8325,1.8308,1.8447,1.8443,1.8441,1.8326,0,1.9875,1.9683,1.9609,1.945,1.9348,1.9287,1.9191,1.9088,1.9016,1.8914,1.8832,1.8717,1.8711,1.8661,1.8588,1.8497,1.8425,1.8504,1.8349,1.8345,1.8381,1.8287,1.8296,1.8193,1.831,1.8308,1.8306,0,1.9746,1.9639,1.9471,1.9334,1.9289,1.9205,1.9075,1.8981,1.8861,1.8812,1.8721,1.8667,1.8544,1.8564,1.839,1.8445,1.8377,1.8322,1.8316,1.8296,1.832,1.8261,1.8159,1.8143,1.828,1.8282,1.8284,0,1.9728,1.9542,1.9416,1.9358,1.9197,1.9138,1.9067,1.895,1.8874,1.8759,1.8708,1.858,1.8508,1.8408,1.8318,1.8342,1.8151,1.8164,1.8102,1.8105,1.8063,1.8067,1.7946,1.8025,1.8025,1.8025,1.8026,0,1.9635,1.9533,1.9406,1.9328,1.921,1.9124,1.9007,1.8932,1.8827,1.8729,1.8668,1.8576,1.8466,1.8358,1.8287,1.8151,1.8119,1.8073,1.8055,1.8077,1.8082,1.8029,1.8032,1.8021,1.8022,1.8023,1.8024,0,1.9595,1.9506,1.9364,1.9223,1.9185,1.9104,1.898,1.8899,1.8824,1.87,1.8666,1.8546,1.8415,1.8317,1.8148,1.81,1.7953,1.7936,1.7996,1.7986,1.7929,1.7934,1.7766,1.7738,1.784,1.7839,1.7839,0,1.954,1.9461,1.9311,1.9243,1.9174,1.9065,1.8987,1.8897,1.8818,1.8673,1.8608,1.8475,1.8363,1.8156,1.805,1.7919,1.7895,1.7846,1.7875,1.7898,1.789,1.7894,1.7884,1.7841,1.784,1.784,1.7839,0,1.9451,1.941,1.9304,1.918,1.909,1.8988,1.8884,1.883,1.872,1.8633,1.8501,1.8415,1.8242,1.8108,1.7965,1.7886,1.7841,1.7831,1.7809,1.783,1.7866,1.7842,1.7981,1.7835,1.7835,1.7836,1.7836,1.7836,1.9399,1.9324,1.9207,1.9088,1.9001,1.8904,1.882,1.8735,1.8625,1.848,1.8431,1.8294,1.8169,1.7974,1.7893,1.778,1.7779,1.7749,1.774,1.7733,1.7733,1.7887,1.7754,1.7754,1.7754,1.7754,1.7754,0,1.9304,1.9225,1.9117,1.8974,1.8879,1.8851,1.8733,1.8654,1.8535,1.8426,1.8317,1.8162,1.8031,1.7915,1.7777,1.7708,1.7684,1.7674,1.7677,1.7658,1.7744,1.7775,1.7696,1.7696,1.7696,1.7696,1.7696,1.7696,1.9243,1.9114,1.9058,1.8882,1.8802,1.867,1.8604,1.8512,1.8424,1.8256,1.8148,1.8074,1.7959,1.7812,1.7688,1.7656,1.7606,1.7601,1.7564,1.7646,1.7653,1.766,1.7688,1.7592,1.7592,1.7487,1.7486,1.7486]}]]